Weather History for Christchurch, New Zealand

Change the Weather History Date:

Friday, April 5, 2013

  Actual Average Record
Temperature  
Mean Temperature 50 °F -  
Max Temperature 59 °F 63 °F 78 °F (1997)
Min Temperature 42 °F 44 °F 30 °F (2004)
Degree Days  
Heating Degree Days 14    
Moisture  
Dew Point 42 °F    
Average Humidity 78    
Maximum Humidity 93    
Minimum Humidity 55    
Precipitation  
Precipitation 0.00 in - - ()
Sea Level Pressure  
Sea Level Pressure 30.15 in    
Wind  
Wind Speed 7 mph ()    
Max Wind Speed 15 mph    
Max Gust Speed -    
Visibility 6.2 miles    
Events Rain    
Averages and records for this station are not official NWS values.
T = Trace of Precipitation, MM = Missing Value Source: Averaged Metar Reports

Daily Weather History Graph

Daily Weather History Graph

Search for Another Location

Airport:

Trip Planner

Search our weather history database for the weather conditions in past years. The results will help you decide how hot, cold, wet, or windy it might be!

Date:

Astronomy

Apr. 05, 2013 Rise Set
Actual Time 7:50 AM NZDT 7:13 PM NZDT
Civil Twilight 7:22 AM NZDT 7:42 PM NZDT
Nautical Twilight 6:49 AM NZDT 8:15 PM NZDT
Astronomical Twilight 6:15 AM NZDT 8:48 PM NZDT
Moon 1:55 AM NZDT (4/5) 4:09 PM NZDT (4/5)
Length of Visible Light 12h 20m
Length of Day
11h 22m
Waning Crescent, 31% of the Moon is Illuminated
Apr 5
Waning Crescent
Apr 10
New
Apr 19
First Quarter
Apr 26
Full
May 2
Last Quarter

Hourly Weather History & Observations

Time (NZDT) Temp. Windchill Dew Point Humidity Pressure Visibility Wind Dir Wind Speed Gust Speed Precip Events Conditions
12:00 AM 44.6 °F 39.7 °F 41.0 °F 87% 30.12 in - NE 9.2 mph - N/A   Clear
1:00 AM 42.8 °F 38.0 °F 39.2 °F 87% 30.12 in 6.2 mi NE 8.1 mph - N/A   Unknown
2:00 AM 42.8 °F 38.0 °F 39.2 °F 87% 30.09 in - NE 8.1 mph - N/A   Clear
3:00 AM 42.8 °F 37.5 °F 39.2 °F 87% 30.09 in - NE 9.2 mph - N/A   Clear
4:00 AM 42.8 °F 39.3 °F 37.4 °F 81% 30.09 in - ENE 5.8 mph - N/A   Clear
5:00 AM 42.8 °F 40.1 °F 39.2 °F 87% 30.06 in - NE 4.6 mph - N/A   Clear
6:00 AM 44.6 °F 42.2 °F 41.0 °F 87% 30.09 in - NNE 4.6 mph - N/A   Clear
7:00 AM 42.8 °F 41.1 °F 39.2 °F 87% 30.09 in - West 3.5 mph - N/A   Clear
8:00 AM 42.8 °F - 41.0 °F 93% 30.12 in - WNW 1.2 mph - N/A   Clear
9:00 AM 48.2 °F - 41.0 °F 76% 30.12 in - West 6.9 mph - N/A   Clear
10:00 AM 51.8 °F - 41.0 °F 67% 30.15 in - West 5.8 mph - N/A   Clear
11:00 AM 51.8 °F - 42.8 °F 71% 30.15 in 6.2 mi South 9.2 mph - N/A   Mostly Cloudy
12:00 PM 55.4 °F - 42.8 °F 63% 30.15 in - SSW 11.5 mph - N/A   Clear
1:00 PM 59.0 °F - 46.4 °F 63% 30.15 in 6.2 mi South 13.8 mph - N/A   Partly Cloudy
2:00 PM 59.0 °F - 44.6 °F 59% 30.15 in 6.2 mi South 13.8 mph - N/A   Mostly Cloudy
3:00 PM 59.0 °F - 42.8 °F 55% 30.15 in 6.2 mi South 15.0 mph - N/A   Mostly Cloudy
4:00 PM 53.6 °F - 42.8 °F 67% 30.18 in 6.2 mi SE 11.5 mph - N/A Rain Light Rain Showers
5:00 PM 53.6 °F - 41.0 °F 62% 30.18 in 6.2 mi SSE 6.9 mph - N/A Rain Light Rain Showers
6:00 PM 53.6 °F - 42.8 °F 67% 30.18 in 6.2 mi SW 6.9 mph - N/A   Mostly Cloudy
7:00 PM 51.8 °F - 46.4 °F 82% 30.21 in 6.2 mi WSW 9.2 mph - N/A   Partly Cloudy
8:00 PM 48.2 °F - 44.6 °F 87% 30.24 in 6.2 mi WSW 9.2 mph - N/A   Scattered Clouds
9:00 PM 46.4 °F 42.9 °F 44.6 °F 93% 30.27 in 6.2 mi WSW 6.9 mph - N/A   Scattered Clouds
10:00 PM 46.4 °F 44.3 °F 42.8 °F 87% 30.27 in - West 4.6 mph - N/A   Clear
11:00 PM 46.4 °F 42.4 °F 44.6 °F 93% 30.27 in - WSW 8.1 mph - N/A   Clear